,,Stat6,,Stat2,,Stat8,,Stat9,,Stat10,,Wind1,,Wind1,
time,status,PA1M_AVG,status,PR1M_SUM,status,RH1M_AVG,status,SR1M_AVG,status,TA1M_AVG,status,W1dAve1m,status,W1sAve1m,
2008-06-28, 00:00:00,VALID,917.222,VALID,0,VALID,100,VALID,-0.0679233,VALID,18.354,VALID,168,VALID,1.33828,
2008-06-28, 00:01:00,VALID,917.199,VALID,0,VALID,100,VALID,-0.0679233,VALID,18.3403,VALID,181,VALID,1.69677,
2008-06-28, 00:02:00,VALID,917.181,VALID,0,VALID,100,VALID,-0.0509425,VALID,18.3401,VALID,170,VALID,1.31481,
2008-06-28, 00:03:00,VALID,917.17,VALID,0,VALID,100,VALID,-0.0679233,VALID,18.3406,VALID,177,VALID,1.31463,
2008-06-28, 00:04:00,VALID,917.165,VALID,0,VALID,100,VALID,-0.0169808,VALID,18.3336,VALID,178,VALID,1.26935,
2008-06-28, 00:05:01,VALID,917.148,VALID,0,VALID,100,VALID,-0.0339617,VALID,18.3174,VALID,189,VALID,1.43697,
2008-06-28, 00:06:00,VALID,917.142,VALID,0,VALID,100,VALID,-0.0339617,VALID,18.3144,VALID,179,VALID,1.18438,
2008-06-28, 00:07:00,VALID,917.122,VALID,0,VALID,100,VALID,-0.0339617,VALID,18.2882,VALID,181,VALID,1.15527,
2008-06-28, 00:08:00,VALID,917.107,VALID,0,VALID,100,VALID,-0.101885,VALID,18.262,VALID,178,VALID,1.43397,
2008-06-28, 00:09:00,VALID,917.089,VALID,0,VALID,100,VALID,-0.0509425,VALID,18.2528,VALID,177,VALID,1.33464,
2008-06-28, 00:10:00,VALID,917.075,VALID,0,VALID,100,VALID,-0.0679233,VALID,18.2398,VALID,187,VALID,1.21307,
2008-06-28, 00:11:00,VALID,917.042,VALID,0,VALID,100,VALID,0,VALID,18.2234,VALID,175,VALID,1.10574,
2008-06-28, 00:12:01,VALID,917.028,VALID,0,VALID,100,VALID,-0.0169808,VALID,18.2071,VALID,178,VALID,1.03125,
2008-06-28, 00:13:00,VALID,917.016,VALID,0,VALID,100,VALID,-0.0169808,VALID,18.1911,VALID,172,VALID,1.40699,
2008-06-28, 00:14:00,VALID,916.998,VALID,0,VALID,100,VALID,-0.0679233,VALID,18.1974,VALID,170,VALID,1.52381,
2008-06-28, 00:15:00,VALID,916.968,VALID,0,VALID,100,VALID,-0.0849042,VALID,18.1944,VALID,176,VALID,1.33194,
2008-06-28, 00:16:00,VALID,916.954,VALID,0,VALID,100,VALID,-0.0509425,VALID,18.2074,VALID,165,VALID,2.12176,
2008-06-28, 00:17:00,VALID,916.933,VALID,0,VALID,100,VALID,-0.0509425,VALID,18.2331,VALID,158,VALID,2.4048,
2008-06-28, 00:18:01,VALID,916.915,VALID,0,VALID,100,VALID,-0.0339617,VALID,18.2817,VALID,174,VALID,2.23472,
2008-06-28, 00:19:00,VALID,916.914,VALID,0,VALID,100,VALID,-0.0339617,VALID,18.3176,VALID,177,VALID,1.70433,
2008-06-28, 00:20:01,VALID,916.916,VALID,0,VALID,100,VALID,-0.0169808,VALID,18.3336,VALID,171,VALID,2.16257,
2008-06-28, 00:21:00,VALID,916.907,VALID,0,VALID,100,VALID,-0.0679233,VALID,18.3498,VALID,172,VALID,1.55566,
2008-06-28, 00:22:00,VALID,916.889,VALID,0,VALID,100,VALID,-0.0679233,VALID,18.3663,VALID,172,VALID,1.28144,
2008-06-28, 00:23:00,VALID,916.858,VALID,0,VALID,100,VALID,-0.0509425,VALID,18.382,VALID,170,VALID,1.13906,
2008-06-28, 00:24:00,VALID,916.846,VALID,0,VALID,100,VALID,0.0679233,VALID,18.3883,VALID,180,VALID,0.842297,
2008-06-28, 00:25:00,VALID,916.835,VALID,0,VALID,100,VALID,0.0849042,VALID,18.3781,VALID,170,VALID,0.0918818,
2008-06-28, 00:26:01,VALID,916.828,VALID,0,VALID,100,VALID,0.0339617,VALID,18.3549,VALID,171,VALID,0.0322516,
2008-06-28, 00:27:01,VALID,916.81,VALID,0,VALID,100,VALID,0.0509425,VALID,18.3422,VALID,163,VALID,0.643293,
2008-06-28, 00:28:00,VALID,916.788,VALID,0,VALID,100,VALID,0.0679233,VALID,18.3225,VALID,160,VALID,0.805596,
2008-06-28, 00:29:00,VALID,916.772,VALID,0,VALID,100,VALID,0.101885,VALID,18.3128,VALID,155,VALID,0.420213,
2008-06-28, 00:30:00,VALID,916.757,VALID,0,VALID,100,VALID,0.0509425,VALID,18.2998,VALID,144,VALID,0.415334,
2008-06-28, 00:31:00,VALID,916.746,VALID,0,VALID,100,VALID,0.0509425,VALID,18.284,VALID,133,VALID,1.28926,
2008-06-28, 00:32:00,VALID,916.74,VALID,0,VALID,100,VALID,0.0849042,VALID,18.2741,VALID,114,VALID,0.212109,
2008-06-28, 00:33:00,VALID,916.737,VALID,0,VALID,100,VALID,0.0679233,VALID,18.2641,VALID,134,VALID,0.705915,
2008-06-28, 00:34:00,VALID,916.722,VALID,0,VALID,100,VALID,0.101885,VALID,18.2544,VALID,162,VALID,0.707812,
2008-06-28, 00:35:00,VALID,916.706,VALID,0,VALID,100,VALID,0.0679233,VALID,18.2449,VALID,141,VALID,0.00290698,
2008-06-28, 00:36:00,VALID,916.696,VALID,0,VALID,100,VALID,0.0849042,VALID,18.2252,VALID,141,VALID,0.397485,
2008-06-28, 00:37:00,VALID,916.678,VALID,0,VALID,100,VALID,0.0849042,VALID,18.2088,VALID,136,VALID,0.203125,
2008-06-28, 00:38:00,VALID,916.657,VALID,0,VALID,100,VALID,0.0509425,VALID,18.2025,VALID,151,VALID,0.584872,
2008-06-28, 00:39:00,VALID,916.635,VALID,0,VALID,100,VALID,-0.0339617,VALID,18.2039,VALID,164,VALID,0.585392,
2008-06-28, 00:40:01,VALID,916.616,VALID,0,VALID,100,VALID,-0.0339617,VALID,18.1907,VALID,176,VALID,1.3408,
2008-06-28, 00:41:00,VALID,916.603,VALID,0,VALID,100,VALID,-0.0169808,VALID,18.1972,VALID,162,VALID,0.801953,
2008-06-28, 00:42:01,VALID,916.589,VALID,0,VALID,100,VALID,-0.0339617,VALID,18.1909,VALID,152,VALID,1.16953,
2008-06-28, 00:43:00,VALID,916.573,VALID,0,VALID,100,VALID,-0.0169808,VALID,18.1974,VALID,164,VALID,0.681974,
2008-06-28, 00:44:00,VALID,916.558,VALID,0,VALID,100,VALID,-0.0339617,VALID,18.2041,VALID,165,VALID,1.83757,
2008-06-28, 00:45:00,VALID,916.536,VALID,0,VALID,100,VALID,-0.0169808,VALID,18.2071,VALID,166,VALID,1.69531,
2008-06-28, 00:46:00,VALID,916.514,VALID,0,VALID,100,VALID,-0.0339617,VALID,18.2264,VALID,150,VALID,2.50521,
2008-06-28, 00:47:01,VALID,916.494,VALID,0,VALID,100,VALID,-0.0169808,VALID,18.2655,VALID,154,VALID,2.13814,
2008-06-28, 00:48:01,VALID,916.467,VALID,0,VALID,100,VALID,-0.0169808,VALID,18.275,VALID,159,VALID,1.91442,
2008-06-28, 00:49:00,VALID,916.448,VALID,0,VALID,100,VALID,0,VALID,18.3146,VALID,157,VALID,2.41708,
2008-06-28, 00:50:01,VALID,916.426,VALID,0,VALID,100,VALID,0,VALID,18.3234,VALID,157,VALID,2.6516,
2008-06-28, 00:51:01,VALID,916.425,VALID,0,VALID,100,VALID,-0.0169808,VALID,18.3531,VALID,163,VALID,1.88437,
2008-06-28, 00:52:00,VALID,916.407,VALID,0,VALID,100,VALID,-0.0509425,VALID,18.3665,VALID,166,VALID,2.19638,
2008-06-28, 00:53:01,VALID,916.385,VALID,0,VALID,100,VALID,-0.0169808,VALID,18.3691,VALID,165,VALID,2.29063,
2008-06-28, 00:54:01,VALID,916.362,VALID,0,VALID,100,VALID,-0.0339617,VALID,18.3725,VALID,167,VALID,1.94531,
2008-06-28, 00:55:01,VALID,916.325,VALID,0,VALID,100,VALID,-0.0339617,VALID,18.3823,VALID,165,VALID,1.98562,
2008-06-28, 00:56:00,VALID,916.313,VALID,0,VALID,100,VALID,-0.0169808,VALID,18.3723,VALID,169,VALID,1.67896,
2008-06-28, 00:57:01,VALID,916.284,VALID,0,VALID,100,VALID,-0.0339617,VALID,18.3693,VALID,175,VALID,1.67374,
2008-06-28, 00:58:01,VALID,916.272,VALID,0,VALID,100,VALID,-0.0339617,VALID,18.3596,VALID,178,VALID,2.4269,
2008-06-28, 00:59:01,VALID,916.251,VALID,0,VALID,100,VALID,-0.0169808,VALID,18.3436,VALID,183,VALID,1.57404,
2008-06-28, 01:00:00,VALID,916.239,VALID,0,VALID,100,VALID,0,VALID,18.3304,VALID,183,VALID,1.51207,
2008-06-28, 01:01:01,VALID,916.227,VALID,0,VALID,100,VALID,-0.0339617,VALID,18.3176,VALID,189,VALID,0.794085,
2008-06-28, 01:02:01,VALID,916.238,VALID,0,VALID,100,VALID,-0.0849042,VALID,18.2949,VALID,188,VALID,0.00111607,
2008-06-28, 01:03:01,VALID,916.259,VALID,0,VALID,100,VALID,-0.0509425,VALID,18.275,VALID,166,VALID,0.755907,
2008-06-28, 01:04:01,VALID,916.254,VALID,0,VALID,100,VALID,0,VALID,18.2553,VALID,182,VALID,0.705729,
2008-06-28, 01:05:01,VALID,916.253,VALID,0,VALID,100,VALID,0,VALID,18.243,VALID,181,VALID,0.854353,
2008-06-28, 01:06:01,VALID,916.24,VALID,0,VALID,100,VALID,-0.0679233,VALID,18.2398,VALID,182,VALID,0.948686,
2008-06-28, 01:07:01,VALID,916.224,VALID,0,VALID,100,VALID,-0.0169808,VALID,18.2236,VALID,169,VALID,1.24851,
2008-06-28, 01:08:00,VALID,916.198,VALID,0,VALID,100,VALID,-0.0509425,VALID,18.2141,VALID,133,VALID,0.844893,
2008-06-28, 01:09:00,VALID,916.175,VALID,0,VALID,100,VALID,-0.101885,VALID,18.1988,VALID,166,VALID,2.19903,
2008-06-28, 01:10:00,VALID,916.14,VALID,0,VALID,100,VALID,-0.118866,VALID,18.2085,VALID,173,VALID,2.15677,
2008-06-28, 01:11:00,VALID,916.11,VALID,0,VALID,100,VALID,-0.101885,VALID,18.2213,VALID,181,VALID,1.96802,
2008-06-28, 01:12:00,VALID,916.091,VALID,0,VALID,100,VALID,-0.101885,VALID,18.2245,VALID,180,VALID,2.43524,
2008-06-28, 01:13:00,VALID,916.075,VALID,0,VALID,100,VALID,-0.0849042,VALID,18.2375,VALID,180,VALID,2.78999,
2008-06-28, 01:14:00,VALID,916.054,VALID,0,VALID,100,VALID,-0.101885,VALID,18.2537,VALID,177,VALID,2.27865,
2008-06-28, 01:15:00,VALID,916.024,VALID,0,VALID,100,VALID,-0.0509425,VALID,18.2632,VALID,162,VALID,2.18803,
2008-06-28, 01:16:00,VALID,915.995,VALID,0,VALID,100,VALID,-0.101885,VALID,18.2697,VALID,172,VALID,2.18586,
2008-06-28, 01:17:00,VALID,915.97,VALID,0,VALID,100,VALID,-0.135847,VALID,18.2796,VALID,168,VALID,2.27865,
2008-06-28, 01:18:00,VALID,915.942,VALID,0,VALID,100,VALID,-0.101885,VALID,18.3023,VALID,164,VALID,2.95384,
2008-06-28, 01:19:00,VALID,915.928,VALID,0,VALID,99.8693,VALID,-0.101885,VALID,18.3313,VALID,168,VALID,2.9755,
2008-06-28, 01:20:00,VALID,915.9,VALID,0,VALID,99.5806,VALID,-0.118866,VALID,18.3737,VALID,168,VALID,2.88038,
2008-06-28, 01:21:00,VALID,915.889,VALID,0,VALID,99.2805,VALID,-0.101885,VALID,18.4258,VALID,170,VALID,2.83117,
2008-06-28, 01:22:00,VALID,915.866,VALID,0,VALID,98.9804,VALID,-0.101885,VALID,18.4583,VALID,165,VALID,2.84979,
2008-06-28, 01:23:00,VALID,915.857,VALID,0,VALID,98.6829,VALID,-0.118866,VALID,18.4678,VALID,164,VALID,2.98624,
2008-06-28, 01:24:00,VALID,915.833,VALID,0,VALID,98.3917,VALID,0,VALID,18.4893,VALID,165,VALID,2.81632,
2008-06-28, 01:25:00,VALID,915.835,VALID,0,VALID,97.9123,VALID,0,VALID,18.5217,VALID,164,VALID,2.93864,
2008-06-28, 01:26:00,VALID,915.815,VALID,0,VALID,97.4698,VALID,0,VALID,18.5667,VALID,161,VALID,3.00539,
2008-06-28, 01:27:00,VALID,915.823,VALID,0,VALID,97.0361,VALID,0.0169808,VALID,18.622,VALID,162,VALID,2.76791,
2008-06-28, 01:28:00,VALID,915.806,VALID,0,VALID,96.5593,VALID,-0.0169808,VALID,18.6517,VALID,161,VALID,3.1633,
2008-06-28, 01:29:00,VALID,915.785,VALID,0,VALID,96.2325,VALID,-0.0509425,VALID,18.6804,VALID,155,VALID,2.85338,
2008-06-28, 01:30:00,VALID,915.772,VALID,0,VALID,96.0227,VALID,0,VALID,18.7094,VALID,162,VALID,3.09051,
2008-06-28, 01:31:00,VALID,915.757,VALID,0,VALID,95.9235,VALID,0,VALID,18.7356,VALID,161,VALID,2.31307,
2008-06-28, 01:32:00,VALID,915.713,VALID,0,VALID,95.7595,VALID,0.0169808,VALID,18.7226,VALID,160,VALID,2.53594,
2008-06-28, 01:33:00,VALID,915.687,VALID,0,VALID,95.57,VALID,-0.0169808,VALID,18.7224,VALID,155,VALID,2.38885,
2008-06-28, 01:34:00,VALID,915.692,VALID,0,VALID,95.4098,VALID,0,VALID,18.736,VALID,156,VALID,2.45675,
2008-06-28, 01:35:00,VALID,915.663,VALID,0,VALID,95.1033,VALID,0,VALID,18.7358,VALID,159,VALID,2.82285,
2008-06-28, 01:36:00,VALID,915.653,VALID,0,VALID,94.5858,VALID,0.0169808,VALID,18.7615,VALID,156,VALID,3.28181,
2008-06-28, 01:37:00,VALID,915.638,VALID,0,VALID,94.175,VALID,0,VALID,18.8296,VALID,160,VALID,2.08628,
2008-06-28, 01:38:00,VALID,915.628,VALID,0,VALID,94.0301,VALID,-0.0169808,VALID,18.8516,VALID,156,VALID,2.92429,
2008-06-28, 01:39:00,VALID,915.602,VALID,0,VALID,93.7579,VALID,0,VALID,18.8945,VALID,160,VALID,3.18731,
2008-06-28, 01:40:00,VALID,915.586,VALID,0,VALID,93.5316,VALID,0,VALID,18.9337,VALID,151,VALID,3.12926,
2008-06-28, 01:41:00,VALID,915.583,VALID,0,VALID,93.3816,VALID,0.0169808,VALID,18.9332,VALID,157,VALID,3.23509,
2008-06-28, 01:42:00,VALID,915.566,VALID,0,VALID,93.2569,VALID,0,VALID,18.9464,VALID,151,VALID,2.72475,
2008-06-28, 01:43:00,VALID,915.542,VALID,0,VALID,93.1069,VALID,0,VALID,18.9527,VALID,146,VALID,2.22104,
2008-06-28, 01:44:00,VALID,915.539,VALID,0,VALID,93.2124,VALID,-0.0169808,VALID,18.9466,VALID,151,VALID,2.26054,
2008-06-28, 01:45:00,VALID,915.546,VALID,0,VALID,93.1628,VALID,-0.0509425,VALID,18.9172,VALID,152,VALID,3.14769,
2008-06-28, 01:46:00,VALID,915.545,VALID,0,VALID,93.1616,VALID,-0.0169808,VALID,18.9464,VALID,151,VALID,2.63652,
2008-06-28, 01:47:00,VALID,915.532,VALID,0,VALID,93.0611,VALID,0,VALID,18.9399,VALID,152,VALID,2.93605,
2008-06-28, 01:48:00,VALID,915.539,VALID,0,VALID,93.2798,VALID,0,VALID,18.9432,VALID,159,VALID,2.27896,
2008-06-28, 01:49:00,VALID,915.538,VALID,0,VALID,93.6969,VALID,0,VALID,18.9172,VALID,160,VALID,3.12827,
2008-06-28, 01:50:00,VALID,915.524,VALID,0,VALID,93.8228,VALID,-0.0169808,VALID,18.8785,VALID,161,VALID,2.57184,
2008-06-28, 01:51:00,VALID,915.518,VALID,0,VALID,93.4668,VALID,-0.0169808,VALID,18.872,VALID,153,VALID,3.2394,
2008-06-28, 01:52:00,VALID,915.522,VALID,0,VALID,92.8424,VALID,-0.0169808,VALID,18.9172,VALID,155,VALID,2.40843,
2008-06-28, 01:53:00,VALID,915.511,VALID,0,VALID,92.0972,VALID,-0.0169808,VALID,18.9988,VALID,148,VALID,3.32576,
2008-06-28, 01:54:00,VALID,915.502,VALID,0,VALID,91.3177,VALID,-0.0339617,VALID,19.0991,VALID,156,VALID,2.41183,
2008-06-28, 01:55:00,VALID,915.507,VALID,0,VALID,90.9019,VALID,-0.0339617,VALID,19.164,VALID,159,VALID,3.40792,
2008-06-28, 01:56:00,VALID,915.493,VALID,0,VALID,90.8167,VALID,0,VALID,19.2254,VALID,160,VALID,2.68182,
2008-06-28, 01:57:00,VALID,915.484,VALID,0,VALID,91.1168,VALID,-0.0339617,VALID,19.2097,VALID,157,VALID,2.96512,
2008-06-28, 01:58:00,VALID,915.48,VALID,0,VALID,91.127,VALID,-0.0339617,VALID,19.1677,VALID,148,VALID,2.77102,
2008-06-28, 01:59:00,VALID,915.438,VALID,0,VALID,91.1257,VALID,0,VALID,19.151,VALID,154,VALID,2.46076,
2008-06-28, 02:00:00,VALID,915.431,VALID,0,VALID,90.8498,VALID,-0.0509425,VALID,19.144,VALID,155,VALID,2.80717,
2008-06-28, 02:01:00,VALID,915.396,VALID,0,VALID,90.7875,VALID,-0.0679233,VALID,19.1802,VALID,157,VALID,2.83389,
2008-06-28, 02:02:00,VALID,915.399,VALID,0,VALID,91.1995,VALID,0,VALID,19.2064,VALID,158,VALID,1.83634,
2008-06-28, 02:03:00,VALID,915.378,VALID,0,VALID,91.8099,VALID,-0.0339617,VALID,19.151,VALID,159,VALID,2.95863,
2008-06-28, 02:04:00,VALID,915.37,VALID,0,VALID,92.1735,VALID,-0.0339617,VALID,19.0959,VALID,154,VALID,2.39348,
2008-06-28, 02:05:00,VALID,915.348,VALID,0,VALID,92.5537,VALID,0,VALID,19.0474,VALID,152,VALID,1.96233,
2008-06-28, 02:06:00,VALID,915.336,VALID,0,VALID,92.9047,VALID,-0.0169808,VALID,18.9856,VALID,156,VALID,1.87118,
2008-06-28, 02:07:00,VALID,915.326,VALID,0,VALID,93.0891,VALID,-0.0339617,VALID,18.9474,VALID,152,VALID,2.56632,
2008-06-28, 02:08:00,VALID,915.319,VALID,0,VALID,93.1209,VALID,0,VALID,18.93,VALID,153,VALID,2.39004,
2008-06-28, 02:09:00,VALID,915.315,VALID,0,VALID,93.2697,VALID,0.0169808,VALID,18.9197,VALID,157,VALID,2.45385,
2008-06-28, 02:10:00,VALID,915.305,VALID,0,VALID,93.5469,VALID,0.0339617,VALID,18.8968,VALID,153,VALID,1.762,
2008-06-28, 02:11:00,VALID,915.295,VALID,0,VALID,93.7999,VALID,0.0339617,VALID,18.8646,VALID,151,VALID,2.05952,
2008-06-28, 02:12:00,VALID,915.28,VALID,0,VALID,93.997,VALID,0.0339617,VALID,18.8484,VALID,144,VALID,2.42787,
2008-06-28, 02:13:00,VALID,915.266,VALID,0,VALID,94.0441,VALID,0.0509425,VALID,18.8284,VALID,148,VALID,2.14863,
2008-06-28, 02:14:00,VALID,915.261,VALID,0,VALID,94.0085,VALID,0.0169808,VALID,18.822,VALID,148,VALID,1.66042,
2008-06-28, 02:15:00,VALID,915.245,VALID,0,VALID,94.0263,VALID,0.0509425,VALID,18.809,VALID,145,VALID,2.3544,
2008-06-28, 02:16:00,VALID,915.255,VALID,0,VALID,93.9385,VALID,0,VALID,18.8324,VALID,152,VALID,2.53398,
2008-06-28, 02:17:00,VALID,915.228,VALID,0,VALID,93.6995,VALID,0,VALID,18.8686,VALID,146,VALID,2.0811,
2008-06-28, 02:18:00,VALID,915.247,VALID,0,VALID,93.4909,VALID,0,VALID,18.8708,VALID,148,VALID,2.24276,
2008-06-28, 02:19:00,VALID,915.221,VALID,0,VALID,93.2048,VALID,0,VALID,18.9142,VALID,148,VALID,2.05793,
2008-06-28, 02:20:00,VALID,915.209,VALID,0,VALID,92.7496,VALID,0.0169808,VALID,18.9522,VALID,138,VALID,2.24982,
2008-06-28, 02:21:00,VALID,915.212,VALID,0,VALID,92.5054,VALID,0.0169808,VALID,19.0013,VALID,139,VALID,1.40034,
2008-06-28, 02:22:00,VALID,915.207,VALID,0,VALID,92.3592,VALID,0.0169808,VALID,18.9943,VALID,138,VALID,2.45833,
2008-06-28, 02:23:00,VALID,915.202,VALID,0,VALID,92.0947,VALID,0,VALID,19.0208,VALID,142,VALID,1.32191,
2008-06-28, 02:24:00,VALID,915.185,VALID,0,VALID,91.9268,VALID,-0.101885,VALID,19.0444,VALID,135,VALID,2.20275,
2008-06-28, 02:25:00,VALID,915.189,VALID,0,VALID,91.6077,VALID,-0.0509425,VALID,19.0831,VALID,134,VALID,2.59659,
2008-06-28, 02:26:00,VALID,915.169,VALID,0,VALID,91.3864,VALID,-0.118866,VALID,19.1188,VALID,135,VALID,2.00688,
2008-06-28, 02:27:00,VALID,915.154,VALID,0,VALID,91.1359,VALID,-0.101885,VALID,19.1355,VALID,140,VALID,1.89045,
2008-06-28, 02:28:00,VALID,915.138,VALID,0,VALID,90.5459,VALID,-0.0679233,VALID,19.2129,VALID,142,VALID,2.38453,
2008-06-28, 02:29:00,VALID,915.114,VALID,0,VALID,89.6176,VALID,-0.0849042,VALID,19.3262,VALID,147,VALID,2.41332,
2008-06-28, 02:30:00,VALID,915.099,VALID,0,VALID,88.6334,VALID,-0.0679233,VALID,19.4947,VALID,141,VALID,2.86174,
2008-06-28, 02:31:00,VALID,915.103,VALID,0,VALID,88.1731,VALID,-0.101885,VALID,19.6249,VALID,143,VALID,2.3416,
2008-06-28, 02:32:00,VALID,915.086,VALID,0,VALID,87.8857,VALID,-0.0679233,VALID,19.6644,VALID,147,VALID,2.82358,
2008-06-28, 02:33:00,VALID,915.065,VALID,0,VALID,87.3872,VALID,-0.0849042,VALID,19.7445,VALID,150,VALID,2.40892,
2008-06-28, 02:34:00,VALID,915.051,VALID,0,VALID,87.1367,VALID,-0.101885,VALID,19.7939,VALID,151,VALID,2.68266,
2008-06-28, 02:35:00,VALID,915.028,VALID,0,VALID,86.8926,VALID,-0.0849042,VALID,19.8229,VALID,161,VALID,2.38445,
2008-06-28, 02:36:00,VALID,915.031,VALID,0,VALID,86.7005,VALID,-0.0849042,VALID,19.8555,VALID,149,VALID,2.43159,
2008-06-28, 02:37:00,VALID,915.007,VALID,0,VALID,86.904,VALID,-0.0339617,VALID,19.8618,VALID,158,VALID,2.44247,
2008-06-28, 02:38:00,VALID,915,VALID,0,VALID,86.9727,VALID,-0.101885,VALID,19.8196,VALID,154,VALID,2.84847,
2008-06-28, 02:39:00,VALID,914.99,VALID,0,VALID,86.3699,VALID,-0.0849042,VALID,19.8653,VALID,150,VALID,2.79906,
2008-06-28, 02:40:00,VALID,914.992,VALID,0,VALID,85.9147,VALID,-0.0849042,VALID,19.9556,VALID,151,VALID,3.00124,
2008-06-28, 02:41:00,VALID,914.998,VALID,0,VALID,85.4658,VALID,-0.101885,VALID,20.054,VALID,155,VALID,2.96166,
2008-06-28, 02:42:00,VALID,915.013,VALID,0,VALID,85.3908,VALID,-0.0679233,VALID,20.0792,VALID,150,VALID,2.69688,
2008-06-28, 02:43:00,VALID,915.016,VALID,0,VALID,85.373,VALID,-0.101885,VALID,20.0665,VALID,153,VALID,2.52553,
2008-06-28, 02:44:00,VALID,915.027,VALID,0,VALID,85.5243,VALID,-0.101885,VALID,20.0637,VALID,151,VALID,2.46856,
2008-06-28, 02:45:00,VALID,915.045,VALID,0,VALID,85.6972,VALID,-0.0679233,VALID,20.0278,VALID,155,VALID,2.04353,
2008-06-28, 02:46:00,VALID,915.021,VALID,0,VALID,85.8028,VALID,-0.118866,VALID,20.0121,VALID,150,VALID,2.78906,
2008-06-28, 02:47:00,VALID,915.024,VALID,0,VALID,85.8486,VALID,-0.101885,VALID,19.9893,VALID,157,VALID,2.36433,
2008-06-28, 02:48:00,VALID,915.016,VALID,0,VALID,85.8676,VALID,-0.0679233,VALID,19.9853,VALID,149,VALID,2.78516,
2008-06-28, 02:49:00,VALID,915.013,VALID,0,VALID,86.0012,VALID,-0.0849042,VALID,19.9621,VALID,153,VALID,2.58784,
2008-06-28, 02:50:00,VALID,915,VALID,0,VALID,86.005,VALID,-0.0849042,VALID,19.9467,VALID,148,VALID,2.59555,
2008-06-28, 02:51:00,VALID,914.997,VALID,0,VALID,85.9223,VALID,-0.101885,VALID,19.9434,VALID,150,VALID,2.41276,
2008-06-28, 02:52:00,VALID,914.998,VALID,0,VALID,85.8689,VALID,-0.101885,VALID,19.9404,VALID,150,VALID,2.70579,
2008-06-28, 02:53:00,VALID,915.003,VALID,0,VALID,85.8219,VALID,-0.0679233,VALID,19.9467,VALID,149,VALID,2.89844,
2008-06-28, 02:54:00,VALID,915.012,VALID,0,VALID,85.8397,VALID,0,VALID,19.9484,VALID,145,VALID,2.25472,
2008-06-28, 02:55:00,VALID,915.02,VALID,0,VALID,85.7863,VALID,-0.0169808,VALID,19.9327,VALID,144,VALID,3.20531,
2008-06-28, 02:56:00,VALID,915.031,VALID,0,VALID,85.7227,VALID,-0.0169808,VALID,19.9254,VALID,140,VALID,2.70201,
2008-06-28, 02:57:00,VALID,915.029,VALID,0,VALID,85.7036,VALID,0,VALID,19.9359,VALID,152,VALID,2.40179,
2008-06-28, 02:58:00,VALID,915.04,VALID,0,VALID,85.8893,VALID,0,VALID,19.9032,VALID,152,VALID,2.24981,
2008-06-28, 02:59:00,VALID,915.05,VALID,0,VALID,86.0686,VALID,0.0339617,VALID,19.8575,VALID,139,VALID,2.37445,
2008-06-28, 03:00:00,VALID,915.049,VALID,0,VALID,86.5429,VALID,0,VALID,19.7989,VALID,156,VALID,2.53995,
2008-06-28, 03:01:00,VALID,915.062,VALID,0,VALID,87.1278,VALID,0.0169808,VALID,19.7283,VALID,153,VALID,2.23601,
2008-06-28, 03:02:00,VALID,915.059,VALID,0,VALID,87.4292,VALID,0,VALID,19.6369,VALID,148,VALID,2.55451,
2008-06-28, 03:03:00,VALID,915.057,VALID,0,VALID,87.2944,VALID,-0.0169808,VALID,19.6209,VALID,156,VALID,2.32539,
2008-06-28, 03:04:00,VALID,915.063,VALID,0,VALID,87.1189,VALID,0,VALID,19.6179,VALID,157,VALID,2.87843,
2008-06-28, 03:05:00,VALID,915.068,VALID,0,VALID,86.9218,VALID,0,VALID,19.6534,VALID,153,VALID,2.42133,
2008-06-28, 03:06:00,VALID,915.076,VALID,0,VALID,86.684,VALID,0,VALID,19.6863,VALID,150,VALID,2.54288,
2008-06-28, 03:07:00,VALID,915.066,VALID,0,VALID,86.4806,VALID,0.0169808,VALID,19.7055,VALID,150,VALID,2.75409,
2008-06-28, 03:08:00,VALID,915.072,VALID,0,VALID,86.1919,VALID,-0.0169808,VALID,19.745,VALID,148,VALID,2.48028,
2008-06-28, 03:09:00,VALID,915.069,VALID,0,VALID,85.9579,VALID,-0.101885,VALID,19.7744,VALID,145,VALID,2.37957,
2008-06-28, 03:10:00,VALID,915.07,VALID,0,VALID,85.6947,VALID,-0.0679233,VALID,19.8036,VALID,153,VALID,2.54033,
2008-06-28, 03:11:00,VALID,915.058,VALID,0,VALID,85.4912,VALID,-0.101885,VALID,19.8266,VALID,150,VALID,2.58363,
2008-06-28, 03:12:00,VALID,915.078,VALID,0,VALID,85.4251,VALID,-0.101885,VALID,19.8528,VALID,156,VALID,2.44368,
2008-06-28, 03:13:00,VALID,915.071,VALID,0,VALID,85.3259,VALID,-0.101885,VALID,19.8493,VALID,146,VALID,2.38467,
2008-06-28, 03:14:00,VALID,915.071,VALID,0,VALID,85.1772,VALID,-0.101885,VALID,19.8755,VALID,147,VALID,2.6317,
2008-06-28, 03:15:00,VALID,915.058,VALID,0,VALID,84.9737,VALID,-0.0849042,VALID,19.898,VALID,146,VALID,2.52557,
2008-06-28, 03:16:00,VALID,915.069,VALID,0,VALID,84.5999,VALID,-0.0679233,VALID,19.9434,VALID,141,VALID,2.90997,
2008-06-28, 03:17:00,VALID,915.047,VALID,0,VALID,84.3303,VALID,-0.0339617,VALID,19.9881,VALID,144,VALID,2.56269,
2008-06-28, 03:18:00,VALID,915.028,VALID,0,VALID,84.081,VALID,-0.0509425,VALID,20.0405,VALID,146,VALID,3.06032,
2008-06-28, 03:19:00,VALID,915.026,VALID,0,VALID,84.1306,VALID,-0.0169808,VALID,20.063,VALID,145,VALID,2.41426,
2008-06-28, 03:20:00,VALID,915.023,VALID,0,VALID,84.4078,VALID,-0.0509425,VALID,20.0438,VALID,138,VALID,1.86464,
2008-06-28, 03:21:00,VALID,915.015,VALID,0,VALID,84.3379,VALID,-0.0679233,VALID,20.0051,VALID,144,VALID,2.39348,
2008-06-28, 03:22:00,VALID,915,VALID,0,VALID,84.2146,VALID,-0.0679233,VALID,19.9886,VALID,139,VALID,3.22008,
2008-06-28, 03:23:00,VALID,914.982,VALID,0,VALID,84.0747,VALID,-0.0679233,VALID,20.0243,VALID,139,VALID,2.11345,
2008-06-28, 03:24:00,VALID,914.969,VALID,0,VALID,83.252,VALID,0,VALID,20.0714,VALID,131,VALID,3.07315,
2008-06-28, 03:25:00,VALID,914.992,VALID,0,VALID,82.6632,VALID,0.0509425,VALID,20.182,VALID,140,VALID,2.85374,
2008-06-28, 03:26:00,VALID,914.982,VALID,0,VALID,82.6734,VALID,0.0339617,VALID,20.2439,VALID,141,VALID,2.7413,
2008-06-28, 03:27:00,VALID,915.012,VALID,0,VALID,82.7026,VALID,0.0169808,VALID,20.2499,VALID,134,VALID,2.40557,
2008-06-28, 03:28:00,VALID,914.998,VALID,0,VALID,82.7598,VALID,0.0339617,VALID,20.2304,VALID,142,VALID,2.60751,
2008-06-28, 03:29:00,VALID,914.996,VALID,0,VALID,82.3974,VALID,0.0169808,VALID,20.2507,VALID,146,VALID,3.52841,
2008-06-28, 03:30:00,VALID,914.989,VALID,0,VALID,81.7438,VALID,0.0339617,VALID,20.3535,VALID,145,VALID,3.86776,
2008-06-28, 03:31:00,VALID,915.005,VALID,0,VALID,81.3026,VALID,0.0509425,VALID,20.4416,VALID,141,VALID,3.50694,
2008-06-28, 03:32:00,VALID,914.99,VALID,0,VALID,81.2454,VALID,0.0679233,VALID,20.47,VALID,144,VALID,3.17321,
2008-06-28, 03:33:00,VALID,914.985,VALID,0,VALID,81.2721,VALID,0.0849042,VALID,20.4773,VALID,145,VALID,2.77871,
2008-06-28, 03:34:00,VALID,914.98,VALID,0,VALID,81.0025,VALID,0.0679233,VALID,20.4871,VALID,134,VALID,3.07049,
2008-06-28, 03:35:00,VALID,914.976,VALID,0,VALID,80.2789,VALID,0.0509425,VALID,20.5709,VALID,143,VALID,3.07617,